{"data":{"norad_id":40922,"intl_designator":"2015-050C","name":"COSMOS 2509 (RODNIK-S *)","alt_names":[],"object_type":"PAYLOAD","status":"ACTIVE","operator":null,"country":"CIS","launch_date":"2015-09-23","launch_site_code":"PLMSC","launch_vehicle":null,"mission":null,"orbit_class":"UNKNOWN","rcs_meters":1.5012,"size_class":null,"mass_kg":null,"dimensions":null,"purposes":[],"wikipedia_slug":null,"has_3d_model":false,"image_url":null,"decayed_at":null,"tle_current":{"epoch":"2026-09-20T04:39:40.016160Z","epoch_age_seconds":67633,"freshness":"FRESH","line1":"1 40922U 15050C   26263.19421315  .00000091  00000+0  58824-3 0  9992","line2":"2 40922  82.4927  19.0852 0014681 190.2935 169.7846 12.42887156498685","mean_motion":12.42887156,"eccentricity":0.0014681,"inclination_deg":82.4927,"raan_deg":19.0852,"arg_perigee_deg":190.2935,"mean_anomaly_deg":169.7846,"bstar":0.00058824,"rev_number":49868,"period_min":115.85927113724,"perigee_km":1482.8302164304,"apogee_km":1505.9455239543,"semimajor_km":7872.5248701924,"source":"CELESTRAK","updated_at":"2026-09-20T09:00:14.106107Z"}}}